CYHZ

Halifax Stanfield International Airport

Airport
ICAO code
CYHZ
IATA Code
YHZ
Summary
ICAO Region
NAM
ICAO Territory
Location

Halifax, Nova Scotia,

Serving
Halifax
Elevation
477 ft
Coordinates
44° 52' 50" N , 63° 30' 50" W
KCC
Metar
CYHZ 222000Z 03007KT 15SM SCT013 OVC022 M01/M03 A2985 RMK SF4SC4 SLP120

Description

Officially named Halifax International Airport, serves Halifax and environs, Nova Scotia.

Climatology

Humid Continental climate (Köppen climate classification Dfb) - Variable weather patterns and a large seasonal temperature variance. Summers are often warm and humid with frequent thunderstorms and winters can be very cold with frequent snowfall and persistent snow cover.

Runways

Designator Length Width Surface Rops
14/32 2347 61 ASP Yes/Yes
5/23 2682 61 PEM Yes/Yes

SKYbrary Partners:

Safety knowledge contributed by: